SCP
0 0 0 0 0 0 0 0 0 0 0 1 1 1 1 1 0 0 0 0 0 0 0 0 0 0 0 0 0 0 0 0 0 0 0 0 -0 0 -0 0 -0 0 0
0 0 0 0 0 0 0 0 0 0 0 0 0 0 0 0 0 0 0 0 0 0 0 0 0 0 0 0 0 0 0 0 0 0 -0 -0 -0 0 -0 -0 -0 -0 0
0 0 0 0 0 0 0 0 0 0 0 0 0 0 0 0 0 0 0 0 0 0 0 0 0 0 0 0 0 0 0 0 0 0 -0 -0 -0 -0 -0 -0 0 -0 0
0 0 0 0 0 0 0 0 0 0 0 0 0 0 0 0 0 0 0 0 0 0 0 0 0 0 0 0 0 0 0 0 0 -0 -0 0 0 -0 -0 0 -0 -0 0
0 0 0 0 0 0 0 0 0 0 0 0 0 0 0 0 0 0 0 0 0 0 0 0 0 0 0 0 0 0 -0 0 0 0 0 0 0 0 0 0 -0 -0 0
0 0 0 0 0 0 0 0 0 0 0 0 0 0 0 0 0 0 0 0 0 0 0 0 0 0 0 0 0 0 0 0 0 0 0 0 0 0 0 0 0 0 0
0 0 0 0 0 0 0 0 0 0 0 0 0 0 0 0 0 0 0 0 0 0 0 0 0 0 0 0 0 0 0 0 0 0 0 0 0 0 0 0 0 0 0
0 0 0 0 0 0 0 0 0 0 0 0 0 0 0 0 0 0 0 0 0 0 0 0 0 0 0 0 0 0 0 0 0 0 0 0 0 0 0 0 0 0 0
0 0 0 0 0 0 0 0 0 0 0 0 0 0 0 0 0 0 0 0 0 0 0 0 0 0 0 0 0 0 0 0 0 0 -0 0 0 0 0 0 0 0 0
0 0 0 0 0 0 0 0 0 0 0 0 0 0 0 0 0 0 0 0 0 0 0 0 0 0 0 0 0 0 0 0 0 0 0 0 0 0 0 0 0 0 0
0 0 0 0 0 0 0 0 0 0 0 0 0 0 0 0 0 0 0 0 0 0 0 0 0 0 0 0 0 0 0 0 0 0 0 0 0 0 0 0 0 0 0
0 0 0 -0 -0 -0 -0 -0 0 0 0 0 0 0 0 0 0 0 0 0 0 0 0 0 0 0 0 0 0 0 0 0 0 0 0 0 0 0 0 0 0 0 0
0 -0 -0 -0 -0 0 0 0 0 0 0 0 0 0 0 0 0 0 0 0 0 0 0 0 0 0 0 0 0 0 0 0 0 0 0 0 0 0 0 0 0 0 0
-0 -0 -0 -0 -0 0 0 0 0 0 0 0 0 0 0 0 0 0 0 0 0 0 0 0 0 0 0 0 0 0 0 0 0 0 0 0 0 0 0 0 0 0 0
-0 -0 0 0 0 0 0 0 0 0 0 0 0 0 0 0 0 0 0 0 0 0 0 0 0 0 0 0 0 0 0 0 0 0 0 0 0 0 0 0 0 0 0
0 0 0 0 0 0 0 0 0 0 0 0 0 0 0 0 0 0 0 0 0 0 0 0 0 0 0 0 0 0 0 0 0 0 0 0 0 0 0 0 0 0 0
0 0 0 0 0 0 0 0 0 0 0 0 0 0 0 0 0 0 0 0 0 0 0 0 0 0 -0 -0 0 0 0 0 0 0 0 0 0 0 0 0 0 0 0
0 0 0 0 0 0 0 0 0 0 0 0 0 0 0 0 0 0 0 0 0 0 -0 -0 -0 -0 -0 -0 0 0 -0 -0 -0 -0 -0 0 0 0 0 0 0 -0 -0
0 0 0 0 0 0 0 0 -0 -0 0 0 0 0 0 0 0 0 0 0 0 0 -0 -0 -0 -0 -0 -0 -0 0 0 -0 -0 -0 0 0 0 0 0 0 -0 -0 -0
0 0 0 0 0 0 0 0 0 0 0 0 0 0 0 0 0 0 0 0 0 0 0 0 0 0 0 -0 -0 -0 -0 -0 -0 -0 0 0 0 0 0 -0 -0 -0 -0
0 0 0 0 -0 -0 0 -0 0 0 0 0 0 0 0 0 0 0 0 0 0 0 0 0 0 0 0 -0 -0 -0 0 0 0 0 0 -0 0 -0 -0 -0 0 0 0
0 -0 -0 -0 0 0 0 0 0 0 0 0 0 0 0 0 0 0 0 0 0 0 0 0 0 0 0 0 0 0 -0 0 -0 -0 -0 0 -0 0 0 0 -0 -0 0
0 0 0 0 0 0 0 0 0 0 0 0 0 0 0 0 0 0 0 0 0 0 0 0 0 0 0 0 -0 0 0 -0 -0 -0 -0 -0 0 -0 -0 -0 0 0 0
0 0 0 0 0 0 0 0 0 0 0 0 0 0 0 0 0 0 0 0 -0 -0 -0 0 0 0 0 -0 0 -0 0 0 0 0 0 0 0 -0 0 0 0 0 0
0 0 0 0 0 0 0 0 0 0 0 0 0 0 0 0 -0 -0 0 0 0 0 0 0 0 0 0 0 0 0 -0 0 0 0 0 0 -0 -0 0 0 0 0 0
0 0 0 0 0 0 0 0 0 0 0 -0 0 0 0 0 0 0 0 0 0 0 0 0 0 0 0 -0 0 -0 0 0 0 0 0 0 0 -0 -0 -0 -0 0 0
Wind_Speed_500mb
46 39 32 26 20 17 15 15 21 20 14 12 10 10 11 10 12 16 18 20 21 22 23 21 23 25 26 28 25 20 21 26 34 41 46 48 50 50 49 68 48 47 40
43 38 33 31 30 27 21 16 11 9 9 13 18 17 16 17 20 20 28 28 27 33 27 21 20 24 24 23 21 20 22 29 37 44 46 29 48 40 65 46 54 50 53
49 49 46 42 38 38 34 29 23 18 16 16 13 13 12 13 20 24 24 28 24 22 20 26 31 27 21 18 17 21 26 32 37 40 30 20 18 65 30 58 51 65 52
48 50 48 47 46 43 36 36 34 33 33 32 25 17 10 11 15 22 24 30 29 33 31 26 26 24 20 21 32 34 38 39 42 44 41 31 31 22 36 45 72 61 57
47 49 49 47 49 41 38 39 34 34 32 28 30 31 23 9 13 23 29 30 35 37 35 34 38 40 43 38 54 51 47 44 44 44 43 45 45 41 40 62 75 64 63
58 54 47 39 34 26 25 25 24 27 23 21 21 19 16 15 16 15 22 27 31 28 33 37 41 42 39 38 38 43 52 46 33 31 35 38 40 47 48 60 63 67 59
54 50 45 38 30 28 26 26 22 17 16 15 11 11 11 16 21 23 28 28 33 33 35 43 42 43 43 42 41 38 36 33 34 41 45 43 41 40 47 52 60 59 68
52 50 47 43 43 42 38 33 30 27 25 23 20 16 16 17 20 22 27 34 41 37 39 43 46 44 45 45 44 40 40 43 39 41 41 44 47 45 41 44 53 69 55
43 41 42 49 54 55 55 54 51 47 47 48 45 41 39 36 33 31 32 35 40 43 48 50 49 48 49 48 45 38 43 41 43 46 54 56 55 53 43 46 49 58 52
44 50 55 61 66 66 64 63 63 64 64 63 62 64 63 58 54 50 47 45 41 46 50 52 53 52 49 46 50 57 52 54 67 60 57 58 58 55 53 53 47 56 59
49 54 66 72 68 63 63 61 59 59 62 63 63 63 62 64 61 59 56 49 44 39 46 51 55 50 52 56 51 43 42 47 48 52 58 61 58 54 51 42 45 56 48
49 64 74 71 69 70 68 67 65 64 63 62 55 57 58 55 54 56 58 50 48 46 45 44 43 47 52 49 53 49 43 43 48 54 58 58 51 48 43 41 46 48 41
62 73 66 65 64 68 68 69 69 65 61 62 66 61 53 48 42 38 43 50 65 54 47 46 50 46 44 40 33 35 35 43 50 58 60 51 41 39 38 38 38 35 30
60 58 64 62 68 68 63 54 59 60 58 57 55 49 51 42 42 41 37 39 35 45 58 44 40 46 46 38 33 36 47 52 56 56 47 34 30 29 24 23 18 8 4
50 54 64 67 65 63 71 72 65 63 55 55 54 53 47 37 39 29 24 31 32 32 32 40 40 37 42 43 43 44 50 53 43 39 26 21 13 11 9 9 9 8 9
60 69 67 67 71 68 67 63 61 59 55 49 46 46 38 32 25 24 25 26 19 10 6 19 25 30 36 41 46 51 52 37 34 26 22 5 8 11 8 9 9 14 16
58 63 63 65 65 62 60 63 60 55 50 45 40 35 26 28 22 18 17 23 25 18 21 25 28 35 42 47 39 34 33 31 26 27 23 23 25 26 27 24 17 17 17
57 57 57 57 53 52 55 54 54 52 47 34 30 28 23 23 20 21 18 20 18 19 21 21 24 30 30 25 26 27 24 22 20 34 27 23 21 20 25 30 21 18 16
52 51 47 44 47 46 48 51 48 46 39 29 26 20 21 19 18 18 18 19 18 14 14 18 18 18 16 15 14 10 9 26 38 27 31 27 30 27 16 14 15 17 14
42 40 39 38 39 40 41 42 43 40 39 33 27 20 20 19 18 17 19 19 20 17 16 17 20 22 22 21 12 34 44 48 37 27 33 22 20 12 11 9 11 8 9
33 34 34 35 36 37 38 40 37 37 31 29 33 33 31 25 20 20 23 23 25 27 31 40 44 47 50 50 45 37 32 29 35 35 30 21 16 14 12 12 14 9 8
29 31 34 35 35 32 31 32 34 31 30 29 31 29 27 27 24 23 26 26 26 33 32 36 36 33 34 39 47 48 54 51 41 26 23 21 21 19 17 16 16 13 6
27 29 32 33 33 32 29 29 29 28 27 25 27 28 27 31 34 34 36 42 41 38 48 58 61 59 54 47 43 41 33 25 24 23 21 21 18 17 19 19 20 16 7
26 29 31 32 33 32 29 30 29 26 26 28 30 32 38 41 42 43 40 47 62 65 57 47 43 41 43 36 31 27 22 21 20 21 20 15 18 23 25 25 24 18 21
22 26 29 30 33 36 38 35 31 29 34 35 37 41 50 64 69 70 65 57 50 46 48 50 48 43 38 37 34 35 34 28 23 16 13 20 29 38 38 36 33 20 14
21 25 37 45 51 49 53 56 60 59 57 64 66 65 65 60 57 56 54 52 50 46 44 44 42 41 40 35 28 27 27 25 19 24 29 29 30 35 37 38 30 23 22
Wind_Direction_500mb
121 116 110 114 131 126 157 178 185 178 177 161 184 213 219 246 263 280 250 277 232 229 231 215 211 224 239 250 262 280 301 317 321 323 324 332 336 332 336 327 330 331 330
118 110 106 102 100 102 101 118 142 185 241 262 269 267 267 265 261 270 268 262 242 247 220 223 238 257 260 263 267 284 312 325 335 342 342 333 333 320 329 331 329 332 330
109 100 93 87 86 81 78 78 72 58 31 3 324 281 263 243 230 232 234 238 232 211 235 255 262 260 268 281 298 315 319 326 332 339 345 339 318 326 327 324 322 327 335
101 93 87 84 78 72 72 73 71 68 61 50 29 18 342 300 241 236 229 250 250 239 233 250 260 265 288 327 327 332 330 330 330 332 331 327 317 328 322 310 318 321 330
88 83 79 75 69 67 67 61 56 56 45 34 41 36 9 346 269 260 262 248 240 249 252 249 258 276 285 283 292 302 310 314 321 325 322 318 318 318 317 313 318 323 325
84 83 82 80 69 63 62 54 54 48 43 46 42 27 10 6 353 326 279 258 254 256 265 272 281 279 288 281 283 286 289 297 311 316 312 317 317 312 313 311 310 310 317
74 72 71 68 64 57 56 55 45 39 29 17 357 338 311 298 290 279 273 274 276 271 267 262 264 270 275 280 285 287 294 301 305 307 304 310 305 302 308 306 308 308 308
55 51 46 39 30 24 19 16 10 3 353 347 347 325 302 283 272 275 280 287 282 268 258 257 259 259 266 274 277 283 289 305 310 311 306 306 302 302 305 305 307 306 305
35 27 19 11 359 352 347 341 334 327 319 315 314 310 307 302 296 286 277 269 268 265 264 265 263 265 266 263 273 290 298 304 313 318 318 315 315 302 296 293 295 301 298
13 6 358 350 343 339 333 327 322 317 310 304 299 295 292 290 288 288 284 277 271 264 259 260 257 256 259 266 270 288 286 286 291 303 305 313 315 301 296 294 295 296 294
356 349 343 339 337 333 331 328 324 319 315 312 308 300 292 283 277 272 271 272 267 262 261 263 260 254 264 269 272 275 280 288 293 299 304 308 311 304 299 295 300 300 290
344 341 337 335 335 334 333 330 327 322 317 314 309 302 301 301 296 277 263 264 267 265 268 267 270 272 270 268 279 276 276 282 291 300 305 307 302 296 296 297 301 310 281
338 337 338 341 340 337 334 330 327 325 321 315 311 310 305 298 297 291 289 276 262 264 268 273 274 278 279 272 263 267 278 292 302 304 305 302 297 293 295 299 307 292 285
337 341 340 339 335 336 332 327 324 321 317 319 319 316 310 301 298 290 292 288 287 276 264 268 272 262 265 265 275 290 296 302 304 302 298 298 296 291 308 318 317 306 303
343 339 336 335 336 332 331 330 331 331 333 328 325 320 318 311 295 300 305 308 290 277 271 261 269 282 289 290 280 289 294 291 291 292 298 274 281 327 347 353 34 78 75
340 337 337 335 334 334 336 337 336 333 330 328 328 326 321 319 320 308 307 306 308 271 261 258 270 295 301 301 290 293 291 285 283 283 244 189 78 68 63 67 89 86 70
334 336 333 331 335 340 340 339 337 337 334 331 333 335 328 331 329 324 317 322 321 319 305 289 291 301 301 297 288 283 286 284 271 227 137 107 91 83 79 78 83 80 76
335 333 333 337 342 344 342 344 344 343 339 339 340 344 342 340 346 349 336 325 324 318 325 326 324 315 299 296 295 290 281 275 181 132 112 101 106 92 81 74 73 76 74
331 334 339 343 347 347 348 349 356 356 1 1 355 11 10 17 3 5 8 358 355 353 333 333 329 336 341 328 323 307 249 163 150 125 103 95 78 82 73 63 51 64 63
336 342 349 356 353 357 358 359 8 12 19 25 25 10 356 355 353 353 4 22 23 24 23 36 44 52 50 40 82 129 123 116 104 89 88 70 68 64 40 12 347 353 13
346 354 1 1 359 1 7 12 16 22 26 36 32 29 38 41 46 26 30 42 57 69 82 88 87 89 90 91 92 80 69 89 103 89 87 75 39 32 23 10 12 327 256
355 4 6 9 10 8 12 19 21 24 25 26 27 35 37 39 37 45 55 70 76 97 93 95 93 98 98 84 92 94 95 99 96 79 60 62 54 50 35 24 16 5 322
5 10 11 15 17 18 19 19 15 14 14 23 42 45 51 62 67 72 83 93 94 91 96 94 90 91 88 85 80 80 79 68 57 68 65 72 56 17 7 14 17 9 6
13 15 20 25 26 25 29 35 35 43 48 54 61 69 75 77 78 80 93 94 98 98 89 78 75 72 79 75 63 66 70 69 68 72 84 49 17 17 21 28 40 54 107
24 27 32 45 48 52 55 57 54 59 67 72 78 85 90 93 96 87 89 87 83 75 73 73 74 75 68 67 71 71 74 80 79 81 65 50 44 47 54 59 63 82 66
47 57 79 84 80 67 70 72 71 75 79 89 86 91 97 95 89 88 86 83 79 73 72 74 75 74 76 80 70 75 74 77 71 67 59 58 55 53 47 39 37 45 37
Wind_Speed_850mb
46 39 32 26 20 17 15 15 21 20 14 12 10 10 11 10 12 16 18 20 21 22 23 21 23 25 26 28 25 20 21 26 34 41 46 48 50 50 49 68 48 47 40
43 38 33 31 30 27 21 16 11 9 9 13 18 17 16 17 20 20 28 28 27 33 27 21 20 24 24 23 21 20 22 29 37 44 46 29 48 40 65 46 54 50 53
49 49 46 42 38 38 34 29 23 18 16 16 13 13 12 13 20 24 24 28 24 22 20 26 31 27 21 18 17 21 26 32 37 40 30 20 18 65 30 58 51 65 52
48 50 48 47 46 43 36 36 34 33 33 32 25 17 10 11 15 22 24 30 29 33 31 26 26 24 20 21 32 34 38 39 42 44 41 31 31 22 36 45 72 61 57
47 49 49 47 49 41 38 39 34 34 32 28 30 31 23 9 13 23 29 30 35 37 35 34 38 40 43 38 54 51 47 44 44 44 43 45 45 41 40 62 75 64 63
58 54 47 39 34 26 25 25 24 27 23 21 21 19 16 15 16 15 22 27 31 28 33 37 41 42 39 38 38 43 52 46 33 31 35 38 40 47 48 60 63 67 59
54 50 45 38 30 28 26 26 22 17 16 15 11 11 11 16 21 23 28 28 33 33 35 43 42 43 43 42 41 38 36 33 34 41 45 43 41 40 47 52 60 59 68
52 50 47 43 43 42 38 33 30 27 25 23 20 16 16 17 20 22 27 34 41 37 39 43 46 44 45 45 44 40 40 43 39 41 41 44 47 45 41 44 53 69 55
43 41 42 49 54 55 55 54 51 47 47 48 45 41 39 36 33 31 32 35 40 43 48 50 49 48 49 48 45 38 43 41 43 46 54 56 55 53 43 46 49 58 52
44 50 55 61 66 66 64 63 63 64 64 63 62 64 63 58 54 50 47 45 41 46 50 52 53 52 49 46 50 57 52 54 67 60 57 58 58 55 53 53 47 56 59
49 54 66 72 68 63 63 61 59 59 62 63 63 63 62 64 61 59 56 49 44 39 46 51 55 50 52 56 51 43 42 47 48 52 58 61 58 54 51 42 45 56 48
49 64 74 71 69 70 68 67 65 64 63 62 55 57 58 55 54 56 58 50 48 46 45 44 43 47 52 49 53 49 43 43 48 54 58 58 51 48 43 41 46 48 41
62 73 66 65 64 68 68 69 69 65 61 62 66 61 53 48 42 38 43 50 65 54 47 46 50 46 44 40 33 35 35 43 50 58 60 51 41 39 38 38 38 35 30
60 58 64 62 68 68 63 54 59 60 58 57 55 49 51 42 42 41 37 39 35 45 58 44 40 46 46 38 33 36 47 52 56 56 47 34 30 29 24 23 18 8 4
50 54 64 67 65 63 71 72 65 63 55 55 54 53 47 37 39 29 24 31 32 32 32 40 40 37 42 43 43 44 50 53 43 39 26 21 13 11 9 9 9 8 9
60 69 67 67 71 68 67 63 61 59 55 49 46 46 38 32 25 24 25 26 19 10 6 19 25 30 36 41 46 51 52 37 34 26 22 5 8 11 8 9 9 14 16
58 63 63 65 65 62 60 63 60 55 50 45 40 35 26 28 22 18 17 23 25 18 21 25 28 35 42 47 39 34 33 31 26 27 23 23 25 26 27 24 17 17 17
57 57 57 57 53 52 55 54 54 52 47 34 30 28 23 23 20 21 18 20 18 19 21 21 24 30 30 25 26 27 24 22 20 34 27 23 21 20 25 30 21 18 16
52 51 47 44 47 46 48 51 48 46 39 29 26 20 21 19 18 18 18 19 18 14 14 18 18 18 16 15 14 10 9 26 38 27 31 27 30 27 16 14 15 17 14
42 40 39 38 39 40 41 42 43 40 39 33 27 20 20 19 18 17 19 19 20 17 16 17 20 22 22 21 12 34 44 48 37 27 33 22 20 12 11 9 11 8 9
33 34 34 35 36 37 38 40 37 37 31 29 33 33 31 25 20 20 23 23 25 27 31 40 44 47 50 50 45 37 32 29 35 35 30 21 16 14 12 12 14 9 8
29 31 34 35 35 32 31 32 34 31 30 29 31 29 27 27 24 23 26 26 26 33 32 36 36 33 34 39 47 48 54 51 41 26 23 21 21 19 17 16 16 13 6
27 29 32 33 33 32 29 29 29 28 27 25 27 28 27 31 34 34 36 42 41 38 48 58 61 59 54 47 43 41 33 25 24 23 21 21 18 17 19 19 20 16 7
26 29 31 32 33 32 29 30 29 26 26 28 30 32 38 41 42 43 40 47 62 65 57 47 43 41 43 36 31 27 22 21 20 21 20 15 18 23 25 25 24 18 21
22 26 29 30 33 36 38 35 31 29 34 35 37 41 50 64 69 70 65 57 50 46 48 50 48 43 38 37 34 35 34 28 23 16 13 20 29 38 38 36 33 20 14
21 25 37 45 51 49 53 56 60 59 57 64 66 65 65 60 57 56 54 52 50 46 44 44 42 41 40 35 28 27 27 25 19 24 29 29 30 35 37 38 30 23 22
Wind_Direction_850mb
121 116 110 114 131 126 157 178 185 178 177 161 184 213 219 246 263 280 250 277 232 229 231 215 211 224 239 250 262 280 301 317 321 323 324 332 336 332 336 327 330 331 330
118 110 106 102 100 102 101 118 142 185 241 262 269 267 267 265 261 270 268 262 242 247 220 223 238 257 260 263 267 284 312 325 335 342 342 333 333 320 329 331 329 332 330
109 100 93 87 86 81 78 78 72 58 31 3 324 281 263 243 230 232 234 238 232 211 235 255 262 260 268 281 298 315 319 326 332 339 345 339 318 326 327 324 322 327 335
101 93 87 84 78 72 72 73 71 68 61 50 29 18 342 300 241 236 229 250 250 239 233 250 260 265 288 327 327 332 330 330 330 332 331 327 317 328 322 310 318 321 330
88 83 79 75 69 67 67 61 56 56 45 34 41 36 9 346 269 260 262 248 240 249 252 249 258 276 285 283 292 302 310 314 321 325 322 318 318 318 317 313 318 323 325
84 83 82 80 69 63 62 54 54 48 43 46 42 27 10 6 353 326 279 258 254 256 265 272 281 279 288 281 283 286 289 297 311 316 312 317 317 312 313 311 310 310 317
74 72 71 68 64 57 56 55 45 39 29 17 357 338 311 298 290 279 273 274 276 271 267 262 264 270 275 280 285 287 294 301 305 307 304 310 305 302 308 306 308 308 308
55 51 46 39 30 24 19 16 10 3 353 347 347 325 302 283 272 275 280 287 282 268 258 257 259 259 266 274 277 283 289 305 310 311 306 306 302 302 305 305 307 306 305
35 27 19 11 359 352 347 341 334 327 319 315 314 310 307 302 296 286 277 269 268 265 264 265 263 265 266 263 273 290 298 304 313 318 318 315 315 302 296 293 295 301 298
13 6 358 350 343 339 333 327 322 317 310 304 299 295 292 290 288 288 284 277 271 264 259 260 257 256 259 266 270 288 286 286 291 303 305 313 315 301 296 294 295 296 294
356 349 343 339 337 333 331 328 324 319 315 312 308 300 292 283 277 272 271 272 267 262 261 263 260 254 264 269 272 275 280 288 293 299 304 308 311 304 299 295 300 300 290
344 341 337 335 335 334 333 330 327 322 317 314 309 302 301 301 296 277 263 264 267 265 268 267 270 272 270 268 279 276 276 282 291 300 305 307 302 296 296 297 301 310 281
338 337 338 341 340 337 334 330 327 325 321 315 311 310 305 298 297 291 289 276 262 264 268 273 274 278 279 272 263 267 278 292 302 304 305 302 297 293 295 299 307 292 285
337 341 340 339 335 336 332 327 324 321 317 319 319 316 310 301 298 290 292 288 287 276 264 268 272 262 265 265 275 290 296 302 304 302 298 298 296 291 308 318 317 306 303
343 339 336 335 336 332 331 330 331 331 333 328 325 320 318 311 295 300 305 308 290 277 271 261 269 282 289 290 280 289 294 291 291 292 298 274 281 327 347 353 34 78 75
340 337 337 335 334 334 336 337 336 333 330 328 328 326 321 319 320 308 307 306 308 271 261 258 270 295 301 301 290 293 291 285 283 283 244 189 78 68 63 67 89 86 70
334 336 333 331 335 340 340 339 337 337 334 331 333 335 328 331 329 324 317 322 321 319 305 289 291 301 301 297 288 283 286 284 271 227 137 107 91 83 79 78 83 80 76
335 333 333 337 342 344 342 344 344 343 339 339 340 344 342 340 346 349 336 325 324 318 325 326 324 315 299 296 295 290 281 275 181 132 112 101 106 92 81 74 73 76 74
331 334 339 343 347 347 348 349 356 356 1 1 355 11 10 17 3 5 8 358 355 353 333 333 329 336 341 328 323 307 249 163 150 125 103 95 78 82 73 63 51 64 63
336 342 349 356 353 357 358 359 8 12 19 25 25 10 356 355 353 353 4 22 23 24 23 36 44 52 50 40 82 129 123 116 104 89 88 70 68 64 40 12 347 353 13
346 354 1 1 359 1 7 12 16 22 26 36 32 29 38 41 46 26 30 42 57 69 82 88 87 89 90 91 92 80 69 89 103 89 87 75 39 32 23 10 12 327 256
355 4 6 9 10 8 12 19 21 24 25 26 27 35 37 39 37 45 55 70 76 97 93 95 93 98 98 84 92 94 95 99 96 79 60 62 54 50 35 24 16 5 322
5 10 11 15 17 18 19 19 15 14 14 23 42 45 51 62 67 72 83 93 94 91 96 94 90 91 88 85 80 80 79 68 57 68 65 72 56 17 7 14 17 9 6
13 15 20 25 26 25 29 35 35 43 48 54 61 69 75 77 78 80 93 94 98 98 89 78 75 72 79 75 63 66 70 69 68 72 84 49 17 17 21 28 40 54 107
24 27 32 45 48 52 55 57 54 59 67 72 78 85 90 93 96 87 89 87 83 75 73 73 74 75 68 67 71 71 74 80 79 81 65 50 44 47 54 59 63 82 66
47 57 79 84 80 67 70 72 71 75 79 89 86 91 97 95 89 88 86 83 79 73 72 74 75 74 76 80 70 75 74 77 71 67 59 58 55 53 47 39 37 45 37